Regional Weather Roundup
Issued by NWS Goodland, KS

Home | Current Version | Previous Version | Text Only | Print | Product List | Glossary Off
Versions: 1 2 3 4 5 6 7 8 9 10 11 12 13 14 15 16 17 18 19 20 21 22 23 24 25 26 27 28 29 30 31 32 33 34 35 36 37 38 39 40 41 42 43 44 45 46 47 48 49 50

000
ASUS43 KGLD 250759
RWRGLD

GOODLAND FORECAST AREA HOURLY WEATHER ROUNDUP
NATIONAL WEATHER SERVICE GOODLAND KS
200 AM MDT FRI MAY 25 2018

...OFFICIAL OBSERVATIONS...

CITY           SKY/WX    TMP DP  RH WIND       PRES   REMARKS
GOODLAND KS    CLEAR     55  49  80 S9        30.02R
HILL CITY KS   CLEAR     59  55  87 CALM      29.96S
IMPERIAL NEB   CLEAR     60  57  89 SE15G22   29.99R
MCCOOK NEB     CLEAR     62  51  67 SW9       29.96S
AKRON CO       CLEAR     61  46  57 SW13      30.06F
BURLINGTON CO  CLEAR     51  48  89 W9        30.04F
LIMON CO       CLEAR     45  42  89 N5        30.13F
$$

...UNOFFICIAL OBSERVATIONS...

CITY           SKY/WX    TMP DP  RH WIND       PRES   REMARKS
NORTON KS      CLEAR     68  52  56 S9        29.94
SHARON SPRINGS   N/A     57  51  81 MISG        N/A
KIT CARSON CO    N/A     51  43  75 CALM        N/A
YUMA CO        FAIR      54  48  82 SW8       30.04S
$$




USA.gov is the U.S. government's official web portal to all federal, state and local government web resources and services.